Weather Service Report


291 
ASUS43 KLSX 291510
RWRMO 

WEATHER SUMMARY FOR MISSOURI
NATIONAL WEATHER SERVICE SPRINGFIELD MO
1000 AM CDT THU SEP 29 2016

NOTE: "FAIR" INDICATES FEW OR NO CLOUDS BELOW 12,000 FEET WITH NO
       SIGNIFICANT WEATHER AND/OR OBSTRUCTIONS TO VISIBILITY.
       CURRENT SKY AND/OR WEATHER CONDITIONS ARE NOT AVAILABLE FOR
       CHILLICOTHE AND FARMINGTON.

MOZ001>031-035>038-043-044-053-054-291600-
...NORTHERN AND WESTERN MISSOURI...
  
CITY           SKY/WX    TMP DP  RH WIND       PRES   REMARKS
KANSAS CTY INT SUNNY     58  50  75 N10       30.38R                  
KANSAS C DTWN  SUNNY     60  51  72 N7        30.37R                  
LEE'S SUMMIT   SUNNY     59  51  75 N9        30.37R                  
ST JOSEPH      SUNNY     59  51  75 N7        30.40R                  
CHILLICOTHE      N/A     60  52  74 N6        30.36R                  
KIRKSVILLE     SUNNY     59  51  75 N14       30.33R                  
     
$$
MOZ066>068-077>081-088>096-101>105-291600-
...SOUTHWEST MISSOURI...
  
CITY           SKY/WX    TMP DP  RH WIND       PRES   REMARKS
SPRINGFIELD    SUNNY     58  50  75 N12       30.30R                  
JOPLIN         SUNNY     57  51  80 N9        30.35R                  
BRANSON        MOSUNNY   57  48  72 N6        30.30R                  
               
$$
MOZ032>034-039>042-045>050-055>058-069>072-291600-
...CENTRAL MISSOURI...  
  
CITY           SKY/WX    TMP DP  RH WIND       PRES   REMARKS
COLUMBIA       SUNNY     61  52  72 N15       30.28R                  
JEFFERSON CITY SUNNY     61  50  67 N10       30.27R                  
ROLLA          SUNNY     57  51  80 NW15      30.25R                  
SEDALIA        SUNNY     61  51  70 N8        30.33R                  
WHITEMAN AFB   MOSUNNY   59  55  87 N8        30.33R                  
OSAGE BEACH    SUNNY     61  50  67 NW8       30.30R                  
               
$$
MOZ051-052-059>065-291600-
...EAST CENTRAL MISSOURI...
  
CITY           SKY/WX    TMP DP  RH WIND       PRES   REMARKS
ST LOUIS INTL  CLOUDY    58  51  78 NW12G21   30.20R                  
SPIRIT OF STL  CLOUDY    57  52  83 NW9       30.21R                  
ST CHARLES     CLOUDY    58  53  84 NW12G20   30.20R                  
                   
$$
MOZ072>076-082>087-097>100-106>115-291600-
...SOUTH CENTRAL AND SOUTHEAST MISSOURI...
  
CITY           SKY/WX    TMP DP  RH WIND       PRES   REMARKS
CAPE GIRARDEAU CLOUDY    59  51  75 NW13      30.14R                  
FARMINGTON     CLOUDY    57  51  80 NW14      30.20R                  
POPLAR BLUFF   SUNNY     64  53  67 NW10      30.16R                  
WEST PLAINS    SUNNY     63  44  50 N10G23    30.25R                  
                                       
$$
  

Return to Home page


Western Regional Climate Center, wrcc@dri.edu